Location: Namasale
(1.5000°N, 32.6167°E)
Time: 21:31:24
(UTC+00:00)

Vanguard 3 - Pass Details

Date: 21 April 2021
Orbit: 507 x 3262 km, 33.4° (Epoch: 16 May)

Event Time Altitude Azimuth Distance (km) Brightness Sun altitude
Rises 16:17:10 0° 223° (SW) 7,231 12.4 -6.8°
Reaches altitude 10° 16:22:56 10° 215° (SW) 6,131 11.9 -8.2°
Maximum altitude 16:39:34 38° 154° (SSE) 3,511 10.0 -12.2°
Enters shadow 16:48:45 17° 97° (E) 3,902 9.9 -14.5°
